RH
12 13 16 18 21 24 26 27 29 29 29 29 28 27 27 27 26 22 18 17 17 16 16 15 14 14 13 13 13 13 12 12 11 10 10 10 9 10 9 9 9 9 9 9 9 10 12 12 12 11 10 10 12 12 12 13 13 11 11 11 11 11 10 10 11 11 12 12 13 15 15 13 17 25 28 29 31 32 32 33 33 34 33 33 35 35 36 40
10 11 12 15 18 21 25 27 28 30 30 29 29 28 27 27 27 23 19 17 17 17 17 16 15 14 14 13 13 13 13 12 11 11 11 12 11 10 9 9 9 9 9 10 10 10 11 11 12 11 10 11 13 13 13 13 13 12 12 12 11 11 10 11 12 11 13 13 14 15 15 14 14 21 27 26 29 31 30 32 34 36 37 37 37 36 36 38
9 10 11 12 15 18 21 25 27 28 30 30 29 28 28 28 27 25 20 18 17 17 17 16 15 15 14 14 14 14 13 13 12 13 14 14 13 12 10 10 9 9 11 12 11 11 11 10 11 10 10 12 13 13 13 13 13 13 12 12 11 11 11 12 12 12 13 14 15 15 14 14 13 17 24 24 28 31 29 30 34 35 38 38 37 37 38 39
9 10 10 11 12 15 17 21 25 27 29 30 30 29 28 28 28 27 23 19 18 17 17 16 16 15 15 14 14 14 14 14 15 15 16 16 14 12 11 11 10 11 13 13 12 11 11 11 11 10 11 13 14 14 13 13 13 12 12 12 12 12 11 12 12 13 14 14 15 15 14 14 13 16 23 26 27 29 28 29 30 31 36 37 38 40 40 41
9 9 10 11 11 13 14 17 21 25 28 29 30 29 28 28 29 29 27 24 21 20 19 18 17 16 16 15 15 15 14 16 19 18 18 18 16 14 11 11 11 12 14 13 11 10 11 11 11 12 12 14 14 14 13 13 13 12 12 13 12 12 12 11 12 13 14 15 15 15 15 13 14 17 22 25 22 22 25 27 27 28 33 37 38 39 40 41
10 9 10 10 11 12 13 14 17 22 26 28 29 29 28 28 29 30 30 28 27 24 22 20 20 19 18 18 17 17 15 16 21 21 20 21 19 18 14 12 12 13 14 12 11 11 12 12 12 13 13 13 14 14 14 13 13 13 13 13 13 12 11 12 12 13 14 15 15 15 15 14 14 15 20 25 20 19 21 21 23 27 32 36 36 37 40 41
11 10 10 10 11 11 12 13 14 17 22 27 28 28 28 27 28 30 30 30 29 28 26 23 22 21 20 20 18 18 17 16 19 21 21 22 23 22 18 15 14 15 14 13 12 11 11 12 12 13 13 13 14 14 14 13 13 13 14 14 13 12 12 12 13 13 13 14 14 14 15 14 14 13 17 23 20 18 20 19 21 27 33 36 36 38 40 41
13 12 10 10 11 11 12 13 13 14 18 23 27 28 27 26 27 28 30 30 30 30 29 27 24 23 22 20 19 19 18 17 18 19 20 22 22 23 22 19 17 16 15 14 13 12 11 12 13 13 13 13 14 14 14 13 13 13 14 14 14 13 12 12 13 13 12 13 14 13 14 15 14 13 16 18 17 18 20 20 22 27 35 36 37 40 40 41
15 14 13 12 11 11 12 12 13 13 15 20 25 27 27 27 26 27 29 30 30 30 30 29 27 26 23 20 20 19 18 19 20 20 19 19 20 22 23 21 18 16 15 14 13 12 11 12 13 13 13 14 13 14 13 13 13 13 14 14 14 13 12 12 13 13 13 13 13 13 14 15 14 14 15 15 16 20 22 23 25 30 36 37 39 41 40 40
16 16 15 14 13 12 12 13 13 14 14 17 22 27 28 27 27 27 28 28 29 29 30 29 29 28 25 21 20 19 20 22 22 20 19 18 18 19 20 20 18 15 15 14 14 13 12 12 13 13 13 14 13 13 13 13 14 13 14 14 13 14 13 12 13 13 13 13 13 13 14 15 14 13 14 16 20 23 24 29 32 34 37 38 40 41 40 40
17 17 16 16 15 13 13 13 13 14 14 15 19 24 27 28 28 27 28 28 28 28 28 28 28 28 26 24 22 19 20 23 22 21 20 20 19 17 18 18 16 15 14 14 15 14 12 12 14 14 14 14 13 14 13 13 13 13 14 14 14 14 13 13 13 13 13 13 13 13 13 14 14 14 14 20 26 27 27 34 37 36 37 40 41 41 41 41
17 18 18 17 16 15 14 13 13 13 14 14 15 20 25 27 28 28 28 28 28 28 28 29 29 28 27 26 23 20 20 22 23 23 23 23 20 16 17 18 15 14 13 13 14 14 13 13 14 14 15 15 15 14 14 14 14 14 15 15 15 14 13 13 13 14 13 13 13 13 13 13 14 14 15 24 31 30 31 35 37 37 38 40 41 41 42 43
16 18 18 17 17 17 15 14 14 14 14 14 14 16 20 24 27 27 26 27 28 29 29 30 31 30 29 26 22 21 20 20 22 24 25 24 19 14 14 17 16 15 14 13 13 14 13 14 15 15 16 16 16 15 15 15 14 15 15 15 15 14 14 14 14 14 14 14 13 13 14 13 14 13 17 29 35 33 35 37 37 39 40 40 41 43 44 44
16 17 18 17 17 16 15 15 15 15 14 14 14 15 17 21 24 25 25 25 26 27 28 31 31 31 30 26 22 21 20 21 23 24 24 22 16 12 13 15 15 15 15 14 13 13 14 16 17 17 16 17 17 16 16 16 16 15 15 16 16 15 14 14 15 15 14 15 14 14 15 14 14 13 18 31 36 33 35 37 38 40 40 41 43 44 45 45
15 17 17 17 16 16 16 15 15 16 15 15 15 15 16 19 22 23 24 24 25 26 29 32 33 33 31 26 22 22 23 23 22 22 20 18 14 11 12 14 15 15 13 13 13 15 17 18 17 17 17 16 17 17 16 16 16 16 16 16 16 15 15 14 15 16 14 15 14 14 15 13 14 13 17 31 36 33 35 36 38 39 40 43 45 44 45 46
15 16 17 18 17 16 15 15 15 15 16 17 17 18 19 21 23 24 25 26 27 29 31 32 33 34 32 27 24 23 25 25 21 20 17 14 13 11 11 14 14 13 13 14 15 18 20 19 18 18 18 17 17 17 16 16 17 16 16 17 18 16 15 15 16 16 15 15 15 15 15 14 15 14 18 31 36 33 34 35 38 39 42 45 45 44 45 46
14 15 17 19 19 18 17 16 15 15 16 18 19 20 21 23 26 27 27 29 31 33 33 32 33 34 30 27 25 24 25 25 21 19 16 13 13 12 11 12 13 12 14 17 18 19 20 20 19 19 18 18 17 16 16 17 16 17 17 18 19 18 17 16 16 17 16 16 16 16 16 15 15 15 21 33 36 33 33 34 38 41 44 46 45 44 45 46
14 15 16 18 20 21 20 18 17 15 15 16 19 20 21 24 27 29 31 34 36 37 36 35 32 30 26 24 25 24 24 25 22 20 17 13 13 13 12 13 14 16 19 20 20 20 20 19 19 18 18 18 17 16 17 17 17 17 18 18 19 19 18 18 18 18 18 18 18 18 17 16 15 15 23 34 35 33 33 34 39 43 45 46 45 45 46 46
14 15 16 17 19 21 21 21 20 18 17 16 18 19 22 27 30 32 35 37 39 38 37 37 33 28 26 24 23 24 25 25 23 20 17 15 14 13 14 17 19 20 21 21 21 21 20 19 18 18 18 18 17 17 16 17 18 18 19 19 19 19 18 18 19 20 21 20 19 18 17 16 16 13 19 32 34 33 33 34 40 44 45 46 45 46 47 47
15 15 16 16 17 19 21 21 22 21 19 18 17 17 22 27 29 33 35 35 35 34 33 33 32 29 28 27 25 25 26 25 23 20 17 15 15 14 17 20 21 21 21 21 21 20 19 18 18 18 18 19 20 21 20 20 21 20 20 20 20 19 18 18 19 21 22 21 20 19 17 15 16 14 17 29 35 32 33 35 40 43 44 46 46 49 50 48
15 16 17 17 17 18 19 20 22 22 21 20 18 19 22 25 27 31 31 30 30 31 31 30 29 28 27 27 27 27 28 26 24 20 17 16 16 16 19 20 21 21 22 22 21 20 18 17 19 19 21 23 24 25 24 23 23 21 21 21 21 20 19 19 21 22 23 23 21 19 17 15 15 15 17 28 34 32 33 36 38 41 43 45 48 52 52 49
13 15 16 17 17 18 18 18 20 21 22 23 21 21 23 24 27 30 30 28 28 29 30 29 29 27 27 27 27 28 28 27 25 21 18 17 16 18 20 20 21 22 23 23 20 19 19 17 18 20 23 25 26 25 23 23 23 22 22 22 21 20 19 21 23 25 25 23 19 18 17 16 16 17 18 26 32 32 34 37 38 42 44 48 51 54 54 50
12 12 13 15 16 17 18 18 19 20 22 25 24 24 26 26 27 30 32 30 27 27 28 29 30 28 27 26 25 27 28 28 27 23 19 16 16 19 20 19 20 22 22 21 20 20 19 18 18 21 23 23 25 24 22 22 22 22 21 21 20 21 21 22 24 26 27 24 20 18 17 17 18 19 18 24 30 31 35 39 40 44 47 51 54 56 55 52
11 11 11 12 14 15 17 18 18 19 22 24 25 27 29 28 29 31 33 30 26 26 27 27 29 29 28 25 23 25 27 28 28 24 19 17 16 18 20 20 20 21 20 21 21 19 18 19 21 23 22 21 23 24 21 18 18 22 24 21 20 21 21 23 24 26 26 25 23 20 20 21 20 21 21 23 29 31 35 40 42 46 49 51 55 57 57 54
11 11 11 11 11 12 14 15 18 20 21 22 25 30 31 28 30 31 32 32 28 27 28 27 28 29 29 25 22 23 26 28 27 23 20 18 17 17 20 20 20 20 20 21 20 18 18 20 22 22 22 21 22 22 21 18 18 22 24 22 21 21 22 24 26 25 23 23 25 23 23 25 23 23 24 25 29 32 37 41 43 47 50 51 54 56 56 55
14 13 12 12 11 11 12 13 17 19 19 22 27 31 31 31 33 31 32 35 32 30 32 32 30 29 29 26 22 23 27 27 24 22 21 19 18 18 20 20 19 20 21 20 20 19 20 21 23 23 25 24 22 21 22 21 20 22 25 25 23 23 24 26 27 25 24 26 30 28 25 27 27 25 27 28 29 33 37 42 45 48 52 52 53 53 54 52
18 16 14 14 13 11 11 11 14 16 18 23 29 31 31 34 35 32 33 36 33 33 35 35 32 31 30 28 25 25 29 29 25 23 23 21 21 21 21 21 20 20 21 22 21 22 22 24 26 27 29 28 24 22 24 23 21 24 28 27 25 24 25 27 28 25 27 30 33 32 27 29 31 28 29 30 30 32 36 41 45 48 52 53 52 52 52 52
22 21 19 17 15 14 12 11 11 13 16 22 28 31 32 34 33 35 38 35 32 37 40 37 34 33 32 30 29 29 29 29 28 27 25 23 23 22 22 22 20 21 23 23 22 25 27 28 29 30 30 29 26 25 27 25 21 24 30 29 26 25 26 28 27 27 31 33 33 34 30 29 31 30 30 29 29 32 36 39 43 46 49 51 51 51 51 52
21 21 22 21 19 17 14 11 10 11 16 23 28 30 31 32 32 36 40 34 29 36 42 42 38 34 33 34 33 32 31 30 30 30 27 24 24 23 23 23 22 22 23 23 25 28 29 28 28 28 27 27 26 28 29 26 23 27 29 28 26 27 27 28 27 28 31 32 33 37 36 31 31 31 29 29 29 31 34 37 39 43 45 48 49 50 51 53
19 19 21 22 22 21 18 14 12 11 14 23 30 30 29 32 34 39 41 34 31 35 38 42 44 39 37 36 35 34 33 32 32 32 29 26 25 24 24 25 24 24 26 26 28 29 29 28 28 28 26 26 27 29 30 27 26 28 27 24 25 26 27 28 29 29 30 31 33 38 41 35 32 33 30 30 32 32 33 35 35 37 40 44 48 50 52 54
16 17 18 20 21 23 21 18 16 14 13 17 27 30 28 31 37 41 41 32 30 35 37 40 45 44 42 40 37 36 36 35 34 34 32 29 28 28 27 28 27 27 29 28 28 30 30 28 28 27 27 27 27 27 28 27 28 28 26 25 25 25 27 28 29 30 30 32 33 37 41 37 34 34 33 34 35 36 36 34 33 34 35 40 46 50 53 54
11 12 15 18 20 21 22 21 18 17 14 15 24 27 29 36 39 39 37 32 31 36 37 39 43 45 46 44 40 39 40 40 37 37 36 34 34 34 32 33 32 31 32 30 30 33 32 29 27 27 27 27 26 27 27 27 27 27 27 27 26 26 28 28 29 31 30 32 35 38 39 36 35 36 36 38 38 38 39 38 37 37 39 41 42 46 51 54
7 9 11 14 17 19 21 23 22 19 16 15 20 25 31 39 40 36 32 30 35 41 40 39 41 45 47 47 45 44 43 44 42 40 41 40 40 41 39 39 39 37 38 36 34 33 32 31 30 27 28 28 26 27 28 29 29 28 28 28 27 28 30 31 31 32 31 31 36 39 38 37 37 36 37 39 40 41 43 44 44 44 44 43 40 41 47 51
5 8 11 12 14 16 17 20 23 23 19 16 18 25 34 36 34 37 34 27 32 41 44 42 41 42 45 47 49 49 48 49 47 44 45 44 44 44 43 44 44 43 45 42 38 35 33 33 31 29 29 28 27 28 29 31 31 31 30 29 29 29 31 31 30 30 30 32 36 38 38 38 39 39 39 40 41 45 47 49 49 49 47 44 41 42 46 48
6 9 12 13 14 16 16 16 20 24 22 19 20 28 33 31 30 37 39 33 29 33 38 41 42 42 43 46 48 49 49 51 51 50 49 48 48 48 46 46 46 48 48 45 42 39 35 32 31 31 30 29 30 30 29 30 32 33 31 30 31 31 31 32 33 33 33 33 35 37 37 39 41 41 41 42 44 45 46 49 50 51 49 47 47 48 49 48
7 10 13 14 14 14 14 12 14 20 24 25 27 30 29 26 29 33 36 37 34 30 30 36 41 43 43 45 48 48 48 49 50 50 51 50 50 50 49 48 47 48 48 48 48 45 40 39 36 33 31 30 30 31 31 31 33 34 33 32 33 33 34 36 37 38 37 35 35 36 37 39 41 42 42 43 44 43 43 47 49 51 51 50 51 51 49 48
9 12 13 13 14 13 12 12 10 12 23 30 30 31 27 22 25 30 33 36 35 33 32 32 39 46 47 47 48 49 50 49 49 49 50 50 51 50 49 49 48 48 48 49 52 50 46 45 42 38 34 32 30 30 31 32 34 35 35 35 35 35 35 36 38 38 37 35 34 35 37 40 41 43 43 42 44 43 43 45 47 51 51 50 51 49 46 44
11 13 13 13 16 13 11 13 9 7 19 30 32 33 29 21 22 29 33 33 34 35 35 34 36 44 50 51 51 51 51 52 51 51 50 50 50 50 49 49 49 49 50 49 51 52 48 46 46 42 39 37 33 31 33 33 34 34 35 36 36 37 36 36 38 38 36 35 35 34 36 38 38 42 45 45 45 45 45 44 45 49 50 50 51 49 47 45
13 14 14 16 18 15 13 15 11 8 16 26 29 33 30 22 22 29 32 32 33 33 35 35 34 39 46 49 52 53 53 55 55 53 52 52 51 50 50 50 50 50 50 49 49 52 52 50 48 45 42 40 37 35 35 35 35 34 34 35 36 37 37 38 38 37 36 36 35 34 35 34 34 39 43 43 43 43 44 43 41 43 47 50 52 51 49 49
14 14 17 21 20 17 18 18 15 14 18 23 28 34 32 25 21 24 28 30 30 28 31 33 33 37 41 44 47 51 53 56 57 55 55 54 53 53 52 50 50 51 51 49 49 53 53 50 50 47 43 41 39 38 37 37 37 36 35 36 36 35 35 37 39 38 37 36 36 35 34 33 35 38 39 40 40 40 42 41 39 42 48 51 53 54 52 51
15 17 21 23 20 19 20 20 21 23 23 23 28 35 37 30 23 22 25 27 27 25 26 29 30 34 38 40 44 48 50 54 56 57 56 54 54 57 56 52 51 51 51 50 50 53 52 51 52 52 46 42 40 39 39 38 38 38 38 37 36 36 35 35 37 39 37 36 37 36 33 35 39 40 40 41 43 44 46 45 44 47 52 53 53 56 56 56
17 20 24 24 26 28 24 23 29 33 29 25 27 34 39 34 26 24 25 26 26 25 24 26 28 31 35 38 43 46 48 49 52 56 57 56 56 57 56 55 54 53 53 53 53 55 56 55 55 52 46 43 42 41 40 39 38 38 40 39 38 38 38 37 37 39 40 39 39 37 35 39 43 43 42 44 46 48 48 49 52 54 55 56 57 60 61 61
20 25 28 31 36 36 30 27 32 34 33 31 29 34 42 39 29 25 25 26 26 24 23 23 24 27 30 35 40 44 47 48 49 51 54 56 56 56 57 59 58 58 56 54 56 58 59 58 55 51 47 43 41 41 41 40 39 39 40 41 39 38 40 42 42 43 42 42 41 39 38 42 45 44 44 46 49 50 50 50 54 57 59 59 61 63 64 64
25 30 32 34 37 37 36 36 37 35 36 39 35 34 42 44 33 27 29 30 29 27 26 24 23 24 26 32 40 46 47 48 48 49 51 53 52 53 56 58 62 66 63 59 59 57 56 56 54 50 48 45 42 42 41 39 39 39 40 42 41 41 44 46 46 45 43 43 42 38 38 43 45 45 46 47 50 51 53 52 52 56 59 59 59 60 61 62
29 32 34 36 36 37 46 52 52 46 37 38 40 38 44 49 40 33 34 34 32 31 31 29 26 25 26 30 38 46 48 47 49 51 51 51 50 49 52 55 62 68 67 62 59 58 59 60 56 51 49 47 44 42 42 42 42 42 41 44 44 44 46 46 44 43 41 42 41 37 38 43 44 45 48 50 52 52 54 55 53 53 55 55 54 55 57 59
30 36 39 42 41 46 56 60 66 65 47 36 40 44 50 56 49 38 35 35 34 32 31 30 28 27 29 30 35 43 48 47 48 51 52 52 51 49 49 52 58 63 64 61 58 61 67 64 59 55 53 50 48 47 46 47 47 47 46 48 49 51 50 48 44 42 41 42 41 39 41 45 46 48 50 52 54 54 53 54 55 54 53 52 51 52 54 54
28 36 41 44 49 57 64 66 74 81 64 42 42 48 53 58 53 43 37 34 35 34 32 31 30 30 32 33 36 42 46 46 46 50 54 54 53 54 52 52 54 56 58 58 57 64 71 68 62 60 58 55 54 53 51 51 50 52 53 53 54 56 56 51 47 46 45 41 41 44 46 47 49 51 52 53 56 55 53 54 56 56 54 52 52 53 54 52
26 33 38 43 48 56 68 76 82 86 75 56 52 57 60 60 57 51 43 38 37 37 38 37 34 32 33 35 38 42 45 46 46 48 53 55 57 58 55 54 54 55 57 58 56 61 68 68 64 62 60 59 59 56 53 53 52 53 54 56 56 57 58 56 54 54 51 44 44 49 51 52 54 54 54 54 55 54 54 55 56 55 54 52 50 51 53 53
27 32 33 36 41 50 67 82 85 84 80 71 67 70 72 72 68 61 53 48 46 44 44 45 41 37 36 38 41 43 46 47 47 49 52 55 58 60 59 57 55 54 57 62 61 59 62 65 64 62 62 63 63 60 56 55 54 52 52 52 53 54 55 56 58 59 57 54 53 55 57 58 57 56 55 55 55 53 53 54 56 56 54 52 49 47 49 50
28 31 31 31 35 43 59 77 86 85 82 80 80 78 77 76 75 69 62 58 56 52 49 50 49 45 42 42 43 44 45 47 48 51 53 55 56 57 58 57 53 51 54 60 62 60 61 67 69 68 71 72 70 67 63 59 58 56 54 54 54 53 53 53 55 55 56 57 57 57 61 63 60 57 57 56 54 52 51 53 56 58 57 53 49 46 46 46
25 28 29 29 32 37 47 64 81 89 86 85 90 88 83 80 76 72 69 65 63 61 55 53 55 52 48 46 45 46 48 48 49 51 53 54 55 54 55 54 52 52 51 53 58 59 61 67 69 70 74 76 75 74 71 67 64 61 60 60 60 57 55 55 56 55 55 56 56 56 60 64 61 60 60 58 56 54 53 55 58 61 61 57 53 50 48 46
22 24 25 27 30 33 39 49 65 77 81 84 90 92 91 88 83 78 76 72 68 67 64 60 59 57 54 53 51 49 49 50 49 49 50 51 52 53 54 54 52 52 53 54 56 60 60 62 64 66 69 73 76 78 77 77 76 70 66 67 68 65 63 62 63 62 62 60 57 55 58 61 60 59 60 60 59 58 57 58 59 62 63 60 58 57 55 53